Location: Beaver Brook Trail
(44.0290°N, 71.8137°W)
Time: 20:52:32
(UTC+00:00)

A-11 Canister half - Visible Passes

Search period start: 08 November 2024 00:00
Search period end: 18 November 2024 00:00
Orbit: 1514 x 1685 km, 47.2° (Epoch: 07 November)

Date Brightness Start Highest point End Pass type
(mag) Time Alt. Az. Time Alt. Az. Time Alt. Az.
08 Nov 11.2 06:00:26 11° ESE 06:00:26 11° ESE 06:01:17 10° E visible
08 Nov 9.6 07:58:40 45° SSE 08:00:15 48° SE 08:09:49 10° ENE visible
08 Nov 9.1 09:56:53 19° WSW 10:04:54 87° NNW 10:15:08 10° ENE visible
09 Nov 9.7 07:37:20 45° SE 07:37:20 45° SE 07:46:43 10° ENE visible
09 Nov 9.1 09:35:33 28° WSW 09:41:50 89° NNW 09:52:05 10° ENE visible
10 Nov 9.9 07:15:55 40° ESE 07:15:55 40° ESE 07:23:38 10° ENE visible
10 Nov 9.1 09:14:09 39° WSW 09:18:47 89° SSE 09:29:02 10° ENE visible
11 Nov 10.2 06:54:28 33° E 06:54:28 33° E 07:00:32 10° ENE visible
11 Nov 9.0 08:52:40 53° WSW 08:55:44 87° SSE 09:05:59 10° ENE visible
11 Nov 9.3 10:51:07 10° W 11:01:21 75° N 11:11:30 10° E visible
12 Nov 10.5 06:32:57 26° E 06:32:57 26° E 06:37:25 10° ENE visible
12 Nov 9.0 08:31:09 69° SW 08:32:41 85° SSE 08:42:55 10° ENE visible
12 Nov 9.2 10:29:21 15° W 10:38:15 74° N 10:48:26 10° E visible
13 Nov 10.8 06:11:23 20° E 06:11:23 20° E 06:14:18 10° ENE visible
13 Nov 9.0 08:09:35 82° SSE 08:09:38 82° SSE 08:19:52 10° ENE visible
13 Nov 9.2 10:07:46 22° W 10:15:10 74° N 10:25:22 10° E visible
14 Nov 11.1 05:49:46 14° ENE 05:49:46 14° ENE 05:51:10 10° ENE visible
14 Nov 9.2 07:47:58 70° E 07:47:58 70° E 07:56:49 10° ENE visible
14 Nov 9.2 09:46:10 30° W 09:52:05 75° N 10:02:17 10° E visible
15 Nov 9.6 07:26:20 54° E 07:26:20 54° E 07:33:45 10° ENE visible
15 Nov 9.1 09:24:32 39° W 09:28:59 75° N 09:39:13 10° E visible
16 Nov 10.0 07:04:41 42° ENE 07:04:41 42° ENE 07:10:42 10° ENE visible
16 Nov 9.1 09:02:53 51° WNW 09:05:54 75° N 09:16:09 10° E visible
16 Nov 9.3 11:01:20 10° WNW 11:11:36 88° NNE 11:21:46 10° ESE visible
17 Nov 10.3 06:43:00 32° ENE 06:43:00 32° ENE 06:47:38 10° ENE visible
17 Nov 9.0 08:41:12 65° WNW 08:42:49 76° N 08:53:04 10° E visible
17 Nov 9.2 10:39:23 14° WNW 10:48:32 86° NNE 10:58:43 10° ESE visible
